This is the latest recevied weather packets stored in our database for station/object N0KWA. If no packets are shown the sender has not sent any weather packets the latest 10 day(s).
| Time | Temp. | Humidity | Pressure | Rain* | Wind** | Luminosity | Snow |
|---|---|---|---|---|---|---|---|
| 1787854345 | 26.67° C | 90% | 1017.2 hPa | 0 mm | - | 64 W/m² | - |
| 1787854040 | 27.22° C | 90% | 1017 hPa | 0 mm | - | 27 W/m² | - |
| 1787853740 | 26.67° C | 92% | 1017 hPa | 0 mm | - | 47 W/m² | - |
| 1787853138 | 26.11° C | 94% | 1016.9 hPa | 0 mm | - | 44 W/m² | - |
| 1787852833 | 26.11° C | 97% | 1016.9 hPa | 0 mm | - | 75 W/m² | - |
| 1787852532 | 25.56° C | 98% | 1017 hPa | 0 mm | - | 89 W/m² | - |
| 1787852227 | 25.56° C | 98% | 1016.9 hPa | 0 mm | - | 23 W/m² | - |
| 1787851921 | 25.56° C | 98% | 1017.1 hPa | 0 mm | - | 50 W/m² | - |
| 1787851621 | 25.56° C | 99% | 1016.8 hPa | 0 mm | - | 55 W/m² | - |
| 1787851316 | 25.56° C | 99% | 1016.9 hPa | 0 mm | - | 28 W/m² | - |
| 1787851011 | 25.56° C | 99% | 1017.1 hPa | 0 mm | - | 24 W/m² | - |
| 1787850707 | 25.56° C | 99% | 1017.2 hPa | 0 mm | - | 37 W/m² | - |
| 1787850402 | 25° C | 99% | 1017 hPa | 0 mm | - | 48 W/m² | - |
| 1787850098 | 25° C | 99% | 1017.2 hPa | 0 mm | - | 49 W/m² | - |
| 1787849797 | 25° C | 99% | 1017.3 hPa | 0 mm | - | 29 W/m² | - |
| 1787849492 | 25° C | 99% | 1017.3 hPa | 0 mm | - | 40 W/m² | - |
| 1787849191 | 25° C | 99% | 1017.1 hPa | 0 mm | - | 46 W/m² | - |
| 1787848890 | 24.44° C | 99% | 1017.4 hPa | 0 mm | - | 42 W/m² | - |
| 1787848585 | 24.44° C | 99% | 1017.6 hPa | 0 mm | - | 50 W/m² | - |
| 1787848284 | 24.44° C | 99% | 1017.7 hPa | 0 mm | - | 47 W/m² | - |
| 1787847979 | 23.89° C | 99% | 1017.7 hPa | 0 mm | - | 52 W/m² | - |
| 1787847679 | 23.89° C | 99% | 1017.7 hPa | 0 mm | - | 46 W/m² | - |
| 1787847374 | 23.89° C | 99% | 1017.7 hPa | 0 mm | - | 43 W/m² | - |
| 1787847070 | 23.89° C | 99% | 1017.6 hPa | 0 mm | - | 43 W/m² | - |
| 1787846766 | 23.89° C | 99% | 1018 hPa | 0 mm | - | 33 W/m² | - |
* Rain latest hour (hover to see other rain measurements)
** Current wind speed in m/s (hover to see current wind gust speed)